KG1ZR Weather Reports


Display with metric or nautical units.
time (UTC)temp
F
wind
direction
speed
MPH
gust
MPH
rain 1hr
in
rain 24hr
in
rain mn
in
humidity
%
barometer
mb
20260510140558 53 237 4.0 9.0 0.00 0.22 0.02 56 1011.2
20260510135558 53 148 3.0 10.0 0.00 0.22 0.02 56 1011.1
20260510134558 52 179 4.0 10.0 0.00 0.22 0.02 56 1011.2
20260510133556 52 172 4.0 9.0 0.00 0.22 0.02 56 1011.2
20260510132556 52 192 4.0 9.0 0.00 0.22 0.02 57 1011.2
20260510131556 51 188 3.0 8.0 0.00 0.22 0.02 57 1011.3
20260510131034 51 203 4.0 8.0 0.00 0.22 0.02 57 1011.3
20260510125556 51 169 3.0 7.0 0.00 0.22 0.02 57 1011.2
20260510124557 51 186 2.0 7.0 0.00 0.22 0.02 57 1011.3
20260510123556 50 223 2.0 7.0 0.00 0.22 0.02 58 1011.4
20260510122554 50 178 3.0 7.0 0.00 0.22 0.02 57 1011.1
20260510121555 50 242 3.0 6.0 0.00 0.22 0.02 58 1011.2
20260510120554 50 224 3.0 6.0 0.00 0.22 0.02 58 1011.2
20260510115554 50 224 3.0 8.0 0.00 0.22 0.02 58 1011.1
20260510114554 49 242 4.0 9.0 0.00 0.22 0.02 58 1011.2
20260510113554 49 205 3.0 9.0 0.00 0.22 0.02 58 1010.8
20260510112554 49 202 3.0 6.0 0.00 0.22 0.02 58 1010.3
20260510111554 49 172 3.0 7.0 0.00 0.22 0.02 58 1010.0
20260510110745 49 171 2.0 6.0 0.00 0.22 0.02 58 1010.2
20260510104548 49 154 2.0 5.0 0.00 0.22 0.02 58 1010.0
20260510103548 49 93 2.0 6.0 0.00 0.22 0.02 58 1010.1
20260510102548 49 232 1.0 3.0 0.00 0.22 0.02 58 1010.2
20260510101548 49 113 1.0 3.0 0.01 0.22 0.02 58 1010.0
20260510100547 49 169 1.0 3.0 0.01 0.22 0.02 58 1010.2
20260510095548 49 149 0.0 2.0 0.01 0.22 0.02 58 1010.3
20260510094548 49 163 0.0 2.0 0.01 0.22 0.02 58 1010.3
20260510093548 49 188 0.0 2.0 0.01 0.22 0.02 58 1010.3
20260510092547 49 182 1.0 5.0 0.01 0.22 0.02 58 1010.2
20260510091542 49 180 2.0 5.0 0.00 0.21 0.01 58 1010.3
20260510090542 49 155 2.0 5.0 0.00 0.21 0.01 58 1010.2
20260510085541 49 170 2.0 5.0 0.00 0.21 0.01 58 1010.2
20260510084542 49 205 2.0 4.0 0.00 0.21 0.01 58 1010.6
20260510083543 49 178 1.0 5.0 0.00 0.21 0.01 58 1010.5
20260510082542 49 221 1.0 4.0 0.00 0.21 0.01 58 1010.5
20260510081540 49 146 1.0 4.0 0.00 0.21 0.01 58 1010.3
20260510080540 49 209 1.0 5.0 0.00 0.21 0.01 58 1010.3
20260510080029 49 153 2.0 6.0 0.00 0.21 0.01 58 1010.2
20260510074534 49 161 2.0 7.0 0.00 0.21 0.01 58 1010.2
20260510073534 49 94 2.0 4.0 0.00 0.21 0.01 58 1010.5
20260510072533 49 205 2.0 6.0 0.00 0.21 0.01 58 1010.7
20260510072012 49 218 2.0 6.0 0.00 0.21 0.01 58 1010.7
20260510070532 48 218 2.0 6.0 0.00 0.21 0.01 58 1010.8
20260510065532 48 215 3.0 8.0 0.00 0.21 0.01 58 1010.9
20260510064532 48 206 3.0 8.0 0.00 0.21 0.01 58 1010.9
20260510063530 48 170 3.0 8.0 0.00 0.21 0.01 59 1011.1
20260510062529 48 181 4.0 8.0 0.00 0.21 0.01 59 1011.1
20260510062019 48 171 4.0 9.0 0.00 0.21 0.01 59 1011.1
20260510060528 47 178 4.0 8.0 0.00 0.21 0.01 59 1011.1
20260510055530 47 225 3.0 8.0 0.00 0.21 0.01 59 1011.1
20260510054528 47 178 4.0 8.0 0.00 0.21 0.01 60 1011.1
20260510053529 47 203 4.0 8.0 0.00 0.21 0.01 60 1011.2
20260510052530 46 218 2.0 7.0 0.00 0.21 0.01 60 1011.1
20260510051529 46 205 2.0 7.0 0.01 0.21 0.01 61 1011.2
20260510051020 45 175 1.0 7.0 0.01 0.21 0.01 61 1011.2
20260510045529 44 115 1.0 3.0 0.01 0.21 0.01 61 1011.2
20260510044528 44 75 0.0 2.0 0.01 0.21 0.01 62 1011.3
20260510043529 44 75 0.0 2.0 0.01 0.21 0.01 62 1011.3
20260510042529 44 75 0.0 2.0 0.01 0.21 0.01 62 1011.6
20260510041529 44 75 0.0 3.0 0.00 0.20 0.00 62 1011.5
20260510040529 44 75 1.0 3.0 0.00 0.20 0.00 62 1011.5
20260510035529 44 145 0.0 3.0 0.00 0.20 0.20 63 1011.6
20260510034529 44 137 0.0 2.0 0.00 0.20 0.20 63 1011.7
20260510034003 43 78 0.0 0.0 0.00 0.20 0.20 63 1011.9
20260510032529 43 78 0.0 0.0 0.00 0.20 0.20 63 1012.0
20260510031530 43 78 0.0 0.0 0.00 0.20 0.20 63 1012.2
20260510030528 43 78 0.0 0.0 0.00 0.20 0.20 63 1012.2
20260510025529 43 78 0.0 1.0 0.00 0.20 0.20 63 1012.1
20260510024529 43 78 0.0 3.0 0.00 0.20 0.20 64 1012.1
20260510023528 43 82 0.0 3.0 0.00 0.20 0.20 64 1012.1
20260510023013 43 55 0.0 3.0 0.00 0.20 0.20 64 1012.2
20260510021529 43 55 0.0 2.0 0.00 0.20 0.20 64 1012.4
20260510020529 43 55 0.0 4.0 0.00 0.20 0.20 64 1012.5
20260510015528 43 68 1.0 4.0 0.00 0.20 0.20 64 1012.4
20260510014529 43 53 2.0 5.0 0.01 0.20 0.20 65 1012.4
20260510014006 43 73 1.0 4.0 0.01 0.20 0.20 65 1012.5
20260510012528 43 78 2.0 8.0 0.03 0.20 0.20 65 1012.6
20260510011528 43 77 2.0 9.0 0.05 0.20 0.20 65 1012.6
20260510010529 43 79 3.0 9.0 0.07 0.20 0.20 65 1012.4
20260510005529 43 59 1.0 10.0 0.08 0.20 0.20 66 1012.6
20260510004528 43 80 3.0 10.0 0.08 0.19 0.19 66 1012.6
20260510003529 43 90 6.0 13.0 0.08 0.19 0.19 66 1012.5
20260510002528 43 110 5.0 12.0 0.07 0.17 0.16 66 1012.4
20260510001528 43 88 4.0 9.0 0.05 0.15 0.15 66 1012.4
20260510001010 43 121 4.0 10.0 0.03 0.13 0.13 67 1012.5
20260509235529 43 107 3.0 6.0 0.02 0.12 0.12 67 1012.4
20260509235445 43 101 3.0 5.0 0.01 0.11 0.11 67 1012.6
20260509233529 43 82 2.0 5.0 0.01 0.11 0.11 68 1012.7
20260509232528 43 69 2.0 5.0 0.00 0.10 0.10 68 1012.8
20260509231529 43 101 1.0 4.0 0.00 0.10 0.10 68 1012.9
20260509230529 43 135 2.0 7.0 0.00 0.10 0.10 68 1013.0
20260509225528 43 134 2.0 5.0 0.01 0.10 0.10 68 1013.1
20260509225006 43 107 2.0 6.0 0.01 0.10 0.10 69 1013.3
20260509223529 43 187 1.0 4.0 0.02 0.10 0.10 69 1013.3
20260509222528 43 108 3.0 8.0 0.03 0.10 0.10 69 1013.1
20260509222005 44 92 3.0 8.0 0.04 0.10 0.10 70 1013.0
20260509220529 44 82 2.0 6.0 0.05 0.10 0.10 70 1013.0
20260509215529 44 86 3.0 7.0 0.05 0.09 0.09 71 1013.0
20260509214529 44 87 3.0 7.0 0.06 0.09 0.09 71 1013.0
20260509213530 44 80 3.0 7.0 0.05 0.08 0.08 72 1012.8
20260509212528 44 103 4.0 8.0 0.05 0.07 0.07 73 1012.9
20260509211529 44 105 3.0 6.0 0.04 0.06 0.06 72 1013.1
20260509210529 44 132 3.0 7.0 0.03 0.05 0.05 73 1013.3
20260509205529 45 146 2.0 4.0 0.03 0.04 0.04 73 1013.4
20260509204528 45 133 2.0 6.0 0.02 0.03 0.03 74 1013.6
20260509204007 45 193 2.0 7.0 0.02 0.03 0.03 75 1013.6
20260509202528 45 196 3.0 7.0 0.02 0.02 0.02 76 1013.6
20260509201529 45 131 3.0 6.0 0.02 0.02 0.02 76 1013.8
20260509200528 45 138 3.0 7.0 0.02 0.02 0.02 76 1013.8
20260509200012 46 204 3.0 10.0 0.01 0.01 0.01 77 1014.0
20260509194528 46 94 4.0 10.0 0.01 0.01 0.01 78 1013.9
20260509193526 47 116 3.0 10.0 0.01 0.01 0.01 78 1013.9
20260509192526 47 187 3.0 8.0 0.00 0.00 0.00 77 1013.9
20260509191524 47 186 4.0 9.0 0.00 0.00 0.00 77 1013.9
20260509190524 48 148 5.0 15.0 0.00 0.00 0.00 74 1013.9
20260509185524 49 180 6.0 15.0 0.00 0.00 0.00 69 1013.9
20260509184523 50 194 5.0 12.0 0.00 0.00 0.00 63 1013.8
20260509183522 51 173 5.0 14.0 0.00 0.00 0.00 58 1013.4
20260509182523 52 182 5.0 14.0 0.00 0.00 0.00 54 1013.3
20260509181521 53 173 6.0 17.0 0.00 0.00 0.00 51 1013.3
20260509180520 53 215 7.0 17.0 0.00 0.00 0.00 48 1013.1
20260509175521 54 252 5.0 10.0 0.00 0.00 0.00 48 1012.8
20260509174519 55 207 7.0 17.0 0.00 0.00 0.00 43 1012.9
20260509173518 56 183 7.0 15.0 0.00 0.00 0.00 42 1012.8
20260509173438 56 142 5.0 11.0 0.00 0.00 0.00 42 1012.7
20260509171512 56 216 4.0 14.0 0.00 0.00 0.00 42 1012.6
20260509170511 56 211 6.0 14.0 0.00 0.00 0.00 43 1012.7
20260509165944 56 200 7.0 17.0 0.00 0.00 0.00 41 1012.5
20260509164957 56 171 7.0 17.0 0.00 0.00 0.00 42 1012.6
20260509163508 57 201 6.0 14.0 0.00 0.00 0.00 42 1012.7
20260509162509 58 224 6.0 15.0 0.00 0.00 0.00 40 1012.7
20260509161507 58 68 6.0 17.0 0.00 0.00 0.00 41 1012.6
20260509160506 59 213 6.0 16.0 0.00 0.00 0.00 39 1012.7
20260509155506 58 207 6.0 14.0 0.00 0.00 0.00 40 1012.7
20260509154506 59 228 5.0 12.0 0.00 0.00 0.00 42 1012.7
20260509153506 59 100 4.0 9.0 0.00 0.00 0.00 41 1012.8
20260509152507 58 113 5.0 9.0 0.00 0.00 0.00 42 1012.9
20260509151506 58 117 5.0 14.0 0.00 0.00 0.00 42 1012.9
20260509150506 58 181 5.0 14.0 0.00 0.00 0.00 40 1013.0
20260509145948 57 103 4.0 11.0 0.00 0.00 0.00 41 1012.9
20260509144505 57 182 5.0 14.0 0.00 0.00 0.00 41 1013.1
20260509143940 57 257 5.0 12.0 0.00 0.00 0.00 43 1012.9
20260509142504 57 174 4.0 10.0 0.00 0.00 0.00 45 1013.0